Durant, OK

8:15 PM CST on December 09, 2019 (GMT -0600)
Eaker

Weather History for KDUA - October, 2019

Change the Weather History Date:

Thursday, October 31, 2019

  Actual Average (KMLC) Record (KMLC)
Temperature  
Mean Temperature 42 °F -  
Max Temperature 51 °F 69 °F 87 °F (2016)
Min Temperature 33 °F 49 °F 19 °F (1993)
Degree Days  
Heating Degree Days 23    
Moisture  
Dew Point 21 °F    
Average Humidity 45    
Maximum Humidity 75    
Minimum Humidity 24    
Precipitation  
Precipitation 0.00 in - - ()
Sea Level Pressure  
Sea Level Pressure 30.40 in    
Wind  
Wind Speed 5 mph (NW)    
Max Wind Speed 12 mph    
Max Gust Speed 16 mph    
Visibility 10 miles    
Events      
Averages and records for this station are not official NWS values.
T = Trace of Precipitation, MM = Missing Value Source: NWS Daily Summary

Daily Weather History Graph

Daily Weather History Graph

Search for Another Location

Airport or City:

Astronomy

Oct. 31, 2019 Rise Set
Actual Time 7:43 AM CDT 6:33 PM CDT
Civil Twilight 7:18 AM CDT 6:59 PM CDT
Nautical Twilight 6:48 AM CDT 7:29 PM CDT
Astronomical Twilight 6:19 AM CDT 7:58 PM CDT
Moon 11:25 AM CDT (10/31) 9:39 PM CDT (10/31)
Length of Visible Light 11h 41m
Length of Day
10h 50m
Waxing Crescent, 16% of the Moon is Illuminated
Oct 31
Waxing Crescent
Nov 4
First Quarter
Nov 12
Full
Nov 19
Last Quarter
Nov 26
New

Hourly Weather History & Observations

Time (CDT) Temp. Windchill Dew Point Humidity Pressure Visibility Wind Dir Wind Speed Gust Speed Precip Events Conditions
10:36 AM 37.4 °F - 21.2 °F 52% - 10.0 mi North - - N/A   Unknown
10:56 AM 37.4 °F - 21.2 °F 52% - - North - - N/A   Unknown
11:16 AM - - - N/A% - - NNW 8.1 mph - N/A   Unknown
11:36 AM 39.2 °F 35.0 °F 23.0 °F 52% 30.46 in 10.0 mi NW 5.8 mph - N/A   Clear
11:57 AM 42.8 °F 38.6 °F 21.2 °F 42% 30.46 in 10.0 mi NNW 6.9 mph - N/A   Clear
12:16 PM 42.8 °F 38.6 °F 21.2 °F 42% 30.45 in 10.0 mi NNW 6.9 mph - N/A   Clear
12:36 PM 42.8 °F 41.1 °F 21.2 °F 42% 30.45 in 10.0 mi WNW 3.5 mph - N/A   Clear
12:56 PM 44.6 °F 40.2 °F 21.2 °F 39% 30.44 in 10.0 mi WNW 8.1 mph - N/A   Clear
1:16 PM 44.6 °F 40.2 °F 19.4 °F 37% 30.43 in 10.0 mi WNW 8.1 mph - N/A   Clear
1:36 PM 46.4 °F 41.9 °F 17.6 °F 32% 30.42 in 10.0 mi NW 9.2 mph - N/A   Clear
2:16 PM 48.2 °F - 15.8 °F 27% 30.40 in 10.0 mi NW 11.5 mph 16.1 mph N/A   Clear
2:36 PM 48.2 °F - 19.4 °F 32% 30.40 in 10.0 mi WNW 9.2 mph - N/A   Clear
2:56 PM 48.2 °F - 17.6 °F 30% 30.39 in 10.0 mi NW 5.8 mph - N/A   Clear
3:16 PM 50.0 °F - 17.6 °F 28% 30.39 in 10.0 mi WNW 5.8 mph - N/A   Clear
3:36 PM 50.0 °F - 17.6 °F 28% 30.39 in 10.0 mi WNW 4.6 mph - N/A   Clear
3:56 PM 50.0 °F - 17.6 °F 28% 30.39 in 10.0 mi WNW 6.9 mph - N/A   Clear
4:17 PM 51.8 °F - 15.8 °F 24% 30.38 in 10.0 mi NNW 5.8 mph - N/A   Clear
4:56 PM 51.8 °F - 15.8 °F 24% 30.38 in 10.0 mi NNW 3.5 mph - N/A   Clear
5:18 PM 51.8 °F - 15.8 °F 24% 30.38 in 10.0 mi NNW 4.6 mph - N/A   Clear
5:36 PM 51.8 °F - 15.8 °F 24% 30.38 in 10.0 mi NW 3.5 mph - N/A   Clear
6:16 PM 50.0 °F - 15.8 °F 26% 30.37 in 10.0 mi Calm Calm - N/A   Clear
6:36 PM 48.2 °F - 15.8 °F 27% 30.37 in 10.0 mi Calm Calm - N/A   Clear
6:56 PM 44.6 °F - 19.4 °F 37% 30.37 in 10.0 mi Calm Calm - N/A   Clear
7:16 PM 42.8 °F - 21.2 °F 42% 30.37 in 10.0 mi Calm Calm - N/A   Clear
7:37 PM 41.0 °F - 24.8 °F 53% 30.38 in 10.0 mi Calm Calm - N/A   Clear
7:56 PM 39.2 °F - 21.2 °F 49% 30.38 in 10.0 mi Calm Calm - N/A   Clear
8:16 PM 39.2 °F - 21.2 °F 49% 30.38 in 10.0 mi Calm Calm - N/A   Clear
8:37 PM 39.2 °F - 23.0 °F 52% 30.38 in 10.0 mi Calm Calm - N/A   Clear
8:56 PM 37.4 °F - 24.8 °F 60% 30.38 in 10.0 mi Calm Calm - N/A   Clear
9:36 PM 35.6 °F - 26.6 °F 70% 30.38 in 10.0 mi Calm Calm - N/A   Clear
10:16 PM 35.6 °F - 26.6 °F 70% 30.39 in 10.0 mi Calm Calm - N/A   Clear
10:37 PM 35.6 °F - 24.8 °F 65% 30.38 in 10.0 mi Calm Calm - N/A   Clear
10:56 PM 33.8 °F - 26.6 °F 75% 30.39 in 10.0 mi Calm Calm - N/A   Clear
11:16 PM 33.8 °F - 26.6 °F 75% 30.39 in 10.0 mi Calm Calm - N/A   Clear
11:38 PM 33.8 °F - 26.6 °F 75% 30.38 in 10.0 mi Calm Calm - N/A   Clear
11:57 PM 33.8 °F - 26.6 °F 75% 30.38 in 10.0 mi Calm Calm - N/A   Clear